Preview of NWS' New Version of Forecast
This preview is not operational and should not be used for support decisions.

Regional Weather Roundup (RWR)

Issued by National Weather Service (NWS)

                            
000
ASUS44 KJAN 180110
RWRMS 

MISSISSIPPI HOURLY WEATHER ROUNDUP
NATIONAL WEATHER SERVICE JACKSON MS
700 PM CST SUN FEB 17 2019

NOTE: "FAIR: INDICATES FEW OR NO CLOUDS BELOW 12,000 FEET WITH NO
SIGNIFICANT WEATHER AND/OR OBSTRUCTIONS TO VISIBILITY.

MSZ001>002-007>008-010>013-018>021-025>028-034>036-180200-
NORTHWEST MISSISSIPPI
  
CITY           SKY/WX    TMP DP  RH WIND       PRES   REMARKS
BATESVILLE     MOCLDY    43  41  93 CALM      29.97R                  
CLARKSDALE     CLOUDY    43  43 100 N7        29.99R                  
CLEVELAND      MOCLDY    43  43 100 NW3       29.98R                  
GREENWOOD      CLOUDY    44  42  93 N6        29.96R                  
GREENVILLE     FAIR      42  40  92 N7        29.98R                  
OLIVE BRANCH   CLOUDY    41  36  81 NW7       29.99R                  
OXFORD         CLOUDY    41  41 100 NW5       29.98R                  
TUNICA           N/A     39  36  87 N5        30.00R                  
WINONA         CLOUDY    43  43  99 N5        29.95R                  
$$

MSZ003>006-009-014>017-022>024-029>033-037>039-180200-
NORTHEAST MISSISSIPPI
  
CITY           SKY/WX    TMP DP  RH WIND       PRES   REMARKS
ABERDEEN       CLOUDY    46  46 100 N9        29.95R                  
COLUMBUS AFB   LGT RAIN  48  46  93 N8        29.91R                  
CORINTH        DRIZZLE   43  41  93 NW7       29.94R                  
GOLDN TRIANGLE LGT RAIN  48  47  96 N10       29.92R                  
STARKVILLE     CLOUDY    46  45  93 N5        29.93R                  
TUPELO         CLOUDY    45  41  86 NW7       29.95R                  
$$

MSZ040-058-180200-
CENTRAL MISSISSIPPI
  
CITY           SKY/WX    TMP DP  RH WIND       PRES   REMARKS
JACKSON INTL   LGT RAIN  46  44  93 N8        29.95R                  
JACKSON HAWKNS CLOUDY    46  45  96 N6        29.94R                  
MADISON        CLOUDY    43  43 100 CALM      29.95R                  
MERIDIAN KEY   CLOUDY    57  35  43 N7        29.92R                  
MERIDIAN NAS   LGT RAIN  55  53  93 NW7       29.92R FOG              
RAYMOND          N/A     46  46 100 VRB5      29.96R                  
VICKSBURG VKS  CLOUDY    45  45 100 NW7       29.98R                  
$$

MSZ059>079-180200-
SOUTH MISSISSIPPI
  
CITY           SKY/WX    TMP DP  RH WIND       PRES   REMARKS
HATTIESBURG    CLOUDY    60  52  74 N9G21     29.90R                  
LAUREL         CLOUDY    57  50  77 N6        29.90R                  
MCCOMB         CLOUDY    55  47  74 N16       29.89R                  
NATCHEZ        LGT RAIN  45  43  93 N12       29.95R                  
PINE BELT      CLOUDY    58  52  80 N10       29.91R                  
$$

MSZ080>082-180200-
COASTAL MISSISSIPPI
  
CITY           SKY/WX    TMP DP  RH WIND       PRES   REMARKS
BAY ST LOUIS   MOCLDY    72  70  94 S7        29.84R                  
BILOXI         MOCLDY    68  66  95 S9        29.84R                  
PASCAGOULA     MOCLDY    72  67  84 S5        29.85R                  
GULFPORT       CLOUDY    69  67  93 S6        29.84R                  
$$

LAZ007>009-015>016-023>026-180200-
NORTHEAST LOUISIANA
  
CITY           SKY/WX    TMP DP  RH WIND       PRES   REMARKS
BASTROP        MOCLDY    42  42  98 CALM      29.99R                  
TALLULAH/VBURG LGT RAIN  45  40  82 N7        29.98R                  
VIDALIA        CLOUDY    47  46  95 N8        29.96R                  
$$